KE5FMN Weather Reports


time (UTC)temp
C
wind
direction
speed
KPH
gust
KPH
rain 1hr
cm
rain 24hr
cm
rain mn
cm
humidity
%
barometer
mb
20260510191619 25 0 0.0 3.2 0.00 0.00 0.00 72 1016.6
20260510190107 25 0 0.0 3.2 0.00 0.00 0.00 69 1016.5
20260510184556 25 0 0.0 3.2 0.00 0.00 0.00 72 1016.6
20260510183100 25 0 0.0 1.6 0.00 0.00 0.00 71 1016.7
20260510181557 24 15 0.0 3.2 0.00 0.00 0.00 71 1016.7
20260510180056 24 68 0.0 1.6 0.00 0.00 0.00 74 1016.8
20260510174557 23 0 0.0 1.6 0.00 0.00 0.00 74 1016.8
20260510173050 23 0 0.0 1.6 0.00 0.00 0.00 76 1016.7
20260510171556 23 0 0.0 1.6 0.00 0.00 0.00 73 1016.8
20260510170052 23 0 0.0 1.6 0.00 0.00 0.00 71 1016.8
20260510164554 22 0 0.0 1.6 0.00 0.00 0.00 71 1016.8
20260510163056 22 0 0.0 0.0 0.00 0.00 0.00 72 1017.1
20260510161600 22 0 0.0 1.6 0.00 0.00 0.00 71 1016.8
20260510160135 22 0 0.0 3.2 0.00 0.00 0.00 71 1016.8
20260510154610 21 0 0.0 1.6 0.00 0.00 0.00 71 1016.6
20260510153055 21 349 0.0 3.2 0.00 0.00 0.00 71 1016.8
20260510151614 20 0 0.0 1.6 0.00 0.00 0.00 75 1016.7
20260510150057 20 0 0.0 1.6 0.00 0.00 0.00 78 1016.7
20260510144601 20 0 0.0 1.6 0.00 0.00 0.00 77 1016.6
20260510143051 19 0 0.0 3.2 0.00 0.00 0.00 78 1016.5
20260510141552 18 0 0.0 1.6 0.00 0.00 0.00 79 1016.4
20260510134605 17 0 0.0 1.6 0.00 0.00 0.00 83 1015.9
20260510133054 17 94 0.0 1.6 0.00 0.00 0.00 86 1015.6
20260510131559 17 0 0.0 1.6 0.00 0.00 0.00 88 1015.4
20260510130056 16 0 0.0 1.6 0.00 0.00 0.00 90 1015.5
20260510124554 15 37 0.0 1.6 0.00 0.00 0.00 91 1015.2
20260510123057 15 0 0.0 0.0 0.00 0.00 0.00 92 1015.1
20260510121549 15 0 0.0 0.0 0.00 0.00 0.00 91 1014.9
20260510120053 15 0 0.0 0.0 0.00 0.00 0.00 91 1014.7
20260510114553 15 0 0.0 0.0 0.00 0.00 0.00 91 1014.6
20260510113051 15 0 0.0 0.0 0.00 0.00 0.00 90 1014.9
20260510111609 14 0 0.0 0.0 0.00 0.00 0.00 88 1014.5
20260510110100 14 0 0.0 0.0 0.00 0.00 0.00 87 1014.3
20260510104555 15 0 0.0 0.0 0.00 0.00 0.00 87 1014.3
20260510103055 15 0 0.0 0.0 0.00 0.00 0.00 86 1014.1
20260510101553 15 0 0.0 0.0 0.00 0.00 0.00 86 1014.1
20260510100057 15 0 0.0 0.0 0.00 0.00 0.00 85 1014.0
20260510094553 15 0 0.0 0.0 0.00 0.00 0.00 84 1013.8
20260510093111 15 0 0.0 0.0 0.00 0.00 0.00 84 1013.6
20260510091557 15 0 0.0 0.0 0.00 0.00 0.00 81 1013.5
20260510090116 16 0 0.0 0.0 0.00 0.00 0.00 82 1013.7
20260510084552 16 0 0.0 0.0 0.00 0.00 0.00 79 1013.5
20260510083111 15 0 0.0 0.0 0.00 0.00 0.00 81 1013.2
20260510081610 15 0 0.0 0.0 0.00 0.00 0.00 81 1013.0
20260510080056 16 0 0.0 0.0 0.00 0.00 0.00 78 1012.9
20260510074558 16 0 0.0 0.0 0.00 0.00 0.00 77 1013.0
20260510073054 15 0 0.0 0.0 0.00 0.00 0.00 79 1013.2
20260510071555 15 0 0.0 0.0 0.00 0.00 0.00 82 1013.1
20260510070053 15 0 0.0 0.0 0.00 0.00 0.00 86 1013.3
20260510064602 15 0 0.0 0.0 0.00 0.00 0.00 86 1013.3
20260510063055 15 0 0.0 0.0 0.00 0.00 0.00 85 1013.3
20260510061557 15 0 0.0 0.0 0.00 0.00 0.00 84 1013.3
20260510060053 15 0 0.0 0.0 0.00 0.00 0.00 84 1013.3
20260510054553 15 0 0.0 0.0 0.00 0.00 0.00 83 1013.2
20260510053052 15 0 0.0 0.0 0.00 0.00 0.00 81 1013.3
20260510051556 16 0 0.0 0.0 0.00 0.00 0.00 77 1013.1
20260510050055 16 0 0.0 0.0 0.00 0.00 0.00 74 1013.0
20260510044619 16 0 0.0 0.0 0.00 0.00 0.00 74 1012.6
20260510043055 16 0 0.0 0.0 0.00 0.00 0.00 75 1012.5
20260510041553 17 0 0.0 0.0 0.00 0.00 0.00 76 1012.5
20260510040053 17 0 0.0 0.0 0.00 0.00 0.00 74 1012.5
20260510034551 17 0 0.0 0.0 0.00 0.00 0.00 77 1012.5
20260510033100 17 0 0.0 0.0 0.00 0.00 0.00 76 1012.6
20260510031552 17 0 0.0 0.0 0.00 0.00 0.00 74 1012.5
20260510030055 18 0 0.0 0.0 0.00 0.00 0.00 73 1012.5
20260510024559 18 0 0.0 0.0 0.00 0.00 0.00 72 1012.3
20260510023054 20 0 0.0 0.0 0.00 0.00 0.00 69 1012.1
20260510021600 21 0 0.0 0.0 0.00 0.00 0.00 67 1011.9
20260510014556 22 157 0.0 1.6 0.00 0.00 0.00 61 1011.5
20260510013059 22 144 0.0 1.6 0.00 0.00 0.00 58 1011.3
20260510011600 22 0 0.0 1.6 0.00 0.00 0.00 56 1011.2
20260510010126 23 0 0.0 1.6 0.00 0.00 0.00 54 1011.1
20260510004609 23 142 0.0 1.6 0.00 0.00 0.00 53 1010.9
20260510003059 23 148 0.0 1.6 0.00 0.00 0.00 52 1010.7
20260510001550 23 0 0.0 1.6 0.00 0.00 0.00 50 1010.6
20260510000054 24 0 0.0 0.0 0.00 0.00 0.00 50 1010.6
20260509234632 25 98 0.0 0.0 0.00 0.00 0.00 48 1010.4
20260509233054 25 0 0.0 0.0 0.00 0.00 0.00 41 1010.3
20260509231555 26 0 0.0 1.6 0.00 0.00 0.00 38 1010.3
20260509230058 26 0 0.0 1.6 0.00 0.00 0.00 40 1010.3
20260509224553 27 0 0.0 1.6 0.00 0.00 0.00 35 1010.1
20260509223052 27 0 0.0 1.6 0.00 0.00 0.00 37 1009.9
20260509221554 27 72 0.0 3.2 0.00 0.00 0.00 34 1010.1
20260509214554 27 0 0.0 3.2 0.00 0.00 0.00 36 1010.1
20260509213057 28 0 0.0 1.6 0.00 0.00 0.00 32 1010.2
20260509211554 28 221 0.0 3.2 0.00 0.00 0.00 32 1010.4
20260509210057 28 0 1.6 4.8 0.00 0.00 0.00 35 1010.6
20260509204601 29 221 1.6 3.2 0.00 0.00 0.00 34 1010.8
20260509203138 29 221 0.0 4.8 0.00 0.00 0.00 33 1010.8
20260509201604 29 141 0.0 3.2 0.00 0.00 0.00 38 1010.8
20260509200108 28 216 1.6 3.2 0.00 0.00 0.00 33 1010.9
20260509194601 29 136 0.0 4.8 0.00 0.00 0.00 38 1010.8
20260509193117 29 65 0.0 3.2 0.00 0.00 0.00 44 1010.9